Stündliche Wetter Abay (Tyulkubasskiy rayon)

Heute, 17 Juni, Donnerstag

Zeit Temperatur Niederschläge Wind Luftdruck Luftfeuchtigkeit
00:00 +20°C° 0 mm 3 m/S 702 mmHg 31%
01:00 +20°C° 0 mm 3 m/S 702 mmHg 33%
02:00 +19°C° 0 mm 3 m/S 702 mmHg 35%
03:00 +19°C° 0 mm 3 m/S 702 mmHg 35%
04:00 +19°C° 0 mm 3 m/S 702 mmHg 35%
05:00 +19°C° 0 mm 3 m/S 702 mmHg 36%
06:00 +22°C° 0 mm 3 m/S 702 mmHg 31%
07:00 +25°C° 0 mm 3 m/S 703 mmHg 27%
08:00 +28°C° 0 mm 3 m/S 703 mmHg 22%
09:00 +30°C° 0 mm 4 m/S 703 mmHg 20%
10:00 +32°C° 0 mm 6 m/S 703 mmHg 18%
11:00 +34°C° 0 mm 7 m/S 703 mmHg 16%
12:00 +34°C° 0 mm 7 m/S 703 mmHg 16%
13:00 +34°C° 0 mm 7 m/S 703 mmHg 15%
14:00 +35°C° 0 mm 7 m/S 702 mmHg 14%
15:00 +35°C° 0 mm 7 m/S 702 mmHg 14%
16:00 +34°C° 0 mm 6 m/S 702 mmHg 13%
17:00 +34°C° 0 mm 6 m/S 703 mmHg 13%
18:00 +30°C° 0 mm 5 m/S 702 mmHg 17%
19:00 +28°C° 0 mm 4 m/S 702 mmHg 20%
20:00 +25°C° 0 mm 3 m/S 702 mmHg 24%
21:00 +24°C° 0 mm 3 m/S 702 mmHg 28%
22:00 +22°C° 0 mm 3 m/S 702 mmHg 31%
23:00 +21°C° 0 mm 3 m/S 702 mmHg 35%

Morgen, 18 Juni, Freitag

Zeit Temperatur Niederschläge Wind Luftdruck Luftfeuchtigkeit
00:00 +21°C° 0 mm 3 m/S 702 mmHg 36%
01:00 +20°C° 0 mm 3 m/S 702 mmHg 37%
02:00 +20°C° 0 mm 3 m/S 702 mmHg 38%
03:00 +20°C° 0 mm 3 m/S 702 mmHg 38%
04:00 +20°C° 0 mm 3 m/S 702 mmHg 37%
05:00 +20°C° 0 mm 3 m/S 702 mmHg 37%
06:00 +24°C° 0 mm 3 m/S 702 mmHg 32%
07:00 +27°C° 0 mm 3 m/S 703 mmHg 26%
08:00 +30°C° 0 mm 3 m/S 703 mmHg 21%
09:00 +31°C° 0 mm 3 m/S 703 mmHg 19%
10:00 +33°C° 0 mm 3 m/S 703 mmHg 17%
11:00 +35°C° 0 mm 3 m/S 703 mmHg 15%
12:00 +36°C° 0 mm 3 m/S 703 mmHg 14%
13:00 +36°C° 0 mm 3 m/S 702 mmHg 13%
14:00 +37°C° 0 mm 3 m/S 702 mmHg 13%
15:00 +37°C° 0 mm 3 m/S 702 mmHg 12%
16:00 +37°C° 0 mm 4 m/S 702 mmHg 12%
17:00 +36°C° 0 mm 5 m/S 702 mmHg 12%
18:00 +34°C° 0 mm 4 m/S 702 mmHg 14%
19:00 +30°C° 0 mm 4 m/S 702 mmHg 16%
20:00 +28°C° 0 mm 3 m/S 702 mmHg 18%
21:00 +26°C° 0 mm 3 m/S 702 mmHg 19%
22:00 +25°C° 0 mm 3 m/S 702 mmHg 21%
23:00 +24°C° 0 mm 2 m/S 702 mmHg 23%

übermorgen, 19 Juni, Samstag

Zeit Temperatur Niederschläge Wind Luftdruck Luftfeuchtigkeit
00:00 +24°C° 0 mm 2 m/S 702 mmHg 23%
01:00 +24°C° 0 mm 2 m/S 701 mmHg 24%
02:00 +23°C° 0 mm 2 m/S 701 mmHg 24%
03:00 +23°C° 0 mm 2 m/S 701 mmHg 24%
04:00 +23°C° 0 mm 2 m/S 701 mmHg 24%
05:00 +23°C° 0 mm 2 m/S 701 mmHg 24%
06:00 +26°C° 0 mm 2 m/S 702 mmHg 21%
07:00 +29°C° 0 mm 2 m/S 702 mmHg 18%
08:00 +32°C° 0 mm 1 m/S 702 mmHg 15%
09:00 +34°C° 0 mm 3 m/S 702 mmHg 14%
10:00 +36°C° 0 mm 4 m/S 702 mmHg 13%
11:00 +37°C° 0 mm 5 m/S 702 mmHg 12%
12:00 +38°C° 0 mm 6 m/S 702 mmHg 14%
13:00 +38°C° 0 mm 6 m/S 702 mmHg 15%
14:00 +38°C° 0 mm 7 m/S 702 mmHg 17%
15:00 +35°C° 0 mm 7 m/S 702 mmHg 22%
16:00 +33°C° 0 mm 7 m/S 702 mmHg 26%
17:00 +32°C° 0 mm 6 m/S 702 mmHg 31%
18:00 +28°C° 0.1 mm 6 m/S 702 mmHg 32%
19:00 +24°C° 0.1 mm 7 m/S 703 mmHg 34%
20:00 +22°C° 0.1 mm 7 m/S 703 mmHg 35%
21:00 +21°C° 0 mm 7 m/S 703 mmHg 38%
22:00 +20°C° 0 mm 7 m/S 703 mmHg 42%
23:00 +18°C° 0 mm 7 m/S 703 mmHg 45%

20 Juni, Sonntag

Zeit Temperatur Niederschläge Wind Luftdruck Luftfeuchtigkeit
00:00 +17°C° 0 mm 7 m/S 703 mmHg 45%
01:00 +16°C° 0 mm 7 m/S 703 mmHg 44%
02:00 +15°C° 0 mm 7 m/S 703 mmHg 44%
03:00 +14°C° 0 mm 7 m/S 704 mmHg 44%
04:00 +14°C° 0 mm 6 m/S 704 mmHg 44%
05:00 +13°C° 0 mm 6 m/S 704 mmHg 45%
06:00 +15°C° 0 mm 6 m/S 704 mmHg 40%
07:00 +17°C° 0 mm 7 m/S 705 mmHg 36%
08:00 +18°C° 0 mm 7 m/S 705 mmHg 31%
09:00 +21°C° 0 mm 7 m/S 705 mmHg 28%
10:00 +23°C° 0 mm 7 m/S 705 mmHg 25%
11:00 +26°C° 0 mm 7 m/S 705 mmHg 22%
12:00 +27°C° 0 mm 8 m/S 705 mmHg 20%
13:00 +28°C° 0 mm 8 m/S 705 mmHg 18%
14:00 +29°C° 0 mm 8 m/S 705 mmHg 16%
15:00 +29°C° 0 mm 8 m/S 705 mmHg 15%
16:00 +29°C° 0 mm 8 m/S 705 mmHg 14%
17:00 +28°C° 0 mm 9 m/S 705 mmHg 13%
18:00 +26°C° 0 mm 8 m/S 705 mmHg 14%
19:00 +23°C° 0 mm 8 m/S 705 mmHg 15%
20:00 +22°C° 0 mm 8 m/S 705 mmHg 16%
21:00 +21°C° 0 mm 7 m/S 705 mmHg 18%
22:00 +20°C° 0 mm 6 m/S 705 mmHg 20%
23:00 +19°C° 0 mm 5 m/S 705 mmHg 22%

21 Juni, Montag

Zeit Temperatur Niederschläge Wind Luftdruck Luftfeuchtigkeit
00:00 +17°C° 0 mm 5 m/S 704 mmHg 24%
01:00 +16°C° 0 mm 5 m/S 704 mmHg 26%
02:00 +15°C° 0 mm 4 m/S 704 mmHg 28%
03:00 +15°C° 0 mm 4 m/S 704 mmHg 28%
04:00 +14°C° 0 mm 4 m/S 704 mmHg 29%
05:00 +14°C° 0 mm 3 m/S 704 mmHg 29%
06:00 +18°C° 0 mm 3 m/S 704 mmHg 25%
07:00 +21°C° 0 mm 3 m/S 705 mmHg 21%
08:00 +25°C° 0 mm 3 m/S 705 mmHg 16%
09:00 +27°C° 0 mm 3 m/S 705 mmHg 15%
10:00 +29°C° 0 mm 2 m/S 705 mmHg 14%
11:00 +31°C° 0 mm 2 m/S 705 mmHg 12%
12:00 +32°C° 0 mm 2 m/S 705 mmHg 12%
13:00 +34°C° 0 mm 3 m/S 705 mmHg 11%
14:00 +35°C° 0 mm 3 m/S 705 mmHg 11%
15:00 +35°C° 0 mm 4 m/S 705 mmHg 12%
16:00 +35°C° 0 mm 4 m/S 705 mmHg 14%
17:00 +34°C° 0 mm 5 m/S 705 mmHg 16%
18:00 +32°C° 0 mm 4 m/S 705 mmHg 22%
19:00 +28°C° 0 mm 4 m/S 705 mmHg 28%
20:00 +26°C° 0 mm 3 m/S 705 mmHg 35%
21:00 +25°C° 0 mm 3 m/S 705 mmHg 37%
22:00 +24°C° 0 mm 3 m/S 705 mmHg 39%
23:00 +22°C° 0 mm 3 m/S 705 mmHg 41%

22 Juni, Dienstag

Zeit Temperatur Niederschläge Wind Luftdruck Luftfeuchtigkeit
00:00 +22°C° 0 mm 3 m/S 704 mmHg 44%
01:00 +21°C° 0 mm 3 m/S 704 mmHg 48%
02:00 +21°C° 0 mm 3 m/S 704 mmHg 52%
03:00 +20°C° 0 mm 3 m/S 704 mmHg 52%
04:00 +20°C° 0 mm 3 m/S 704 mmHg 53%
05:00 +20°C° 0 mm 3 m/S 704 mmHg 54%
06:00 +22°C° 0 mm 3 m/S 704 mmHg 47%
07:00 +26°C° 0 mm 2 m/S 705 mmHg 40%
08:00 +29°C° 0 mm 2 m/S 705 mmHg 34%
09:00 +30°C° 0 mm 2 m/S 705 mmHg 30%
10:00 +33°C° 0 mm 3 m/S 705 mmHg 26%
11:00 +34°C° 0 mm 3 m/S 705 mmHg 22%
12:00 +35°C° 0 mm 3 m/S 705 mmHg 21%
13:00 +36°C° 0 mm 4 m/S 705 mmHg 19%
14:00 +37°C° 0 mm 4 m/S 704 mmHg 17%
15:00 +36°C° 0 mm 4 m/S 704 mmHg 17%
16:00 +36°C° 0 mm 4 m/S 704 mmHg 17%
17:00 +36°C° 0 mm 4 m/S 704 mmHg 17%
18:00 +33°C° 0 mm 4 m/S 704 mmHg 22%
19:00 +29°C° 0 mm 4 m/S 703 mmHg 26%
20:00 +26°C° 0 mm 4 m/S 703 mmHg 30%
21:00 +25°C° 0 mm 4 m/S 703 mmHg 32%
22:00 +22°C° 0 mm 4 m/S 703 mmHg 33%
23:00 +21°C° 0 mm 4 m/S 703 mmHg 35%
Mehr zeigen

Wir brauchen deine Erlaubnis

Meteoprog und unser Service Anbieter werden persönliche Daten aufbewahren, so wie Cookies, Geräte Bezeichnung oder ähnliche Technologien von deinem Gerät und Prozess, so wie Persönliche Daten Inhalte und Werbungen, genauso wie social Media und den Verkehr zu analysieren.

  • Aufbewahrung und/oder Zugang zu deiner Geräte Informationen.

    Cookies, Geräte Bezeichnung oder andere Informationen, können aufbewahrt oder Zugang zu deinem Gerät erhalten, für den Grund, der oben angegeben wird.

  • Personalisierte Werbung und Inhalte, Messungen, Einblick in das Publikum und Produkt Entwicklung.

    Werbungen und Inhalte können personalisiert werden, basierend auf ein Profil. Mehr Daten können besser personalisierte Werbungen und Inhalte hinzufügen. Werbung und Inhalte können gezeigt und gemessen werden. Einblicke über das Publikum, welche die Werbung gesehen haben und den Inhalt, können abgeleitet werden. So wie Daten können genutzt werden, um es zu verbessern oder die Benutzer Erfahrung zu verbessern das System und die Software.

Wenn du “Ich stimme zu” klickst, erlaubst du uns, die Cookies zu benutzen die Geräte Bezeichnung, den Web oder ähnliche Technologien zu benutzen. Deine Settings, können in deinem Gerät bei deinem Browser geändert werden.

Für den bestimmten Zweck, berechtigten Interessen beruhen darauf, mehr als auf den Inhalt. Du kannst mehr darüber in unseren Privaten und Cookie Politik lesen.